Temp
76 75 74 74 74 75 75 75 75 76 76 76 76 77 77 77 78 78 78 78 78 78 78 78 78 78 78 78 78 78 78 77 78 78 78 78 77 78 78 78 78 77
76 76 76 75 74 75 74 76 75 76 76 76 77 77 77 77 78 78 78 77 78 78 78 78 78 78 78 78 77 77 77 77 77 79 78 77 78 78 78 78 79 78
76 76 76 75 76 75 76 75 75 76 76 77 77 77 77 78 77 77 78 78 78 79 78 78 78 78 78 78 77 77 78 77 77 79 78 78 78 78 79 80 79 79
76 76 77 77 77 76 76 75 75 75 76 76 77 78 78 79 78 77 77 79 78 78 78 78 78 79 78 78 77 77 77 77 78 78 78 78 78 79 78 78 79 79
77 76 77 78 77 76 75 75 76 75 76 77 78 77 77 77 77 77 77 77 77 78 78 78 78 78 78 77 77 77 77 77 77 77 77 77 78 78 79 78 78 78
77 77 76 77 77 76 75 76 76 76 76 77 77 78 78 78 77 77 77 77 78 78 78 78 78 79 79 78 77 77 78 78 78 76 76 77 78 78 79 78 78 77
77 77 77 77 78 77 76 76 76 76 77 78 77 77 78 77 77 77 77 77 78 78 78 78 77 78 78 78 77 76 76 77 77 76 76 77 77 77 78 78 77 77
78 78 77 77 77 77 77 77 76 76 76 76 77 77 77 78 78 78 78 77 78 78 78 78 78 77 78 78 77 77 77 77 77 76 76 76 76 77 77 77 77 77
78 78 77 77 78 78 78 79 78 78 77 76 77 78 77 78 78 78 77 77 77 77 77 77 77 78 78 78 77 77 77 77 78 77 77 77 76 77 77 77 77 77
78 78 78 78 78 78 79 79 80 79 78 77 78 79 78 77 78 78 77 76 77 77 76 77 77 77 77 78 78 78 77 77 77 77 77 78 78 78 78 77 77 76
79 79 78 78 78 79 79 80 80 80 79 78 78 78 79 78 77 77 77 76 77 77 77 77 77 77 77 78 78 78 78 78 78 77 77 77 78 78 78 77 77 77
79 79 79 78 79 79 80 80 81 80 80 79 79 78 78 79 78 77 78 76 77 77 77 77 77 77 77 78 79 78 78 78 78 78 78 78 78 78 78 78 78 78
79 79 79 79 79 80 80 80 80 81 81 80 80 79 79 79 79 77 77 78 77 77 77 77 77 77 77 77 78 77 77 78 78 77 78 78 78 78 79 79 79 79
80 80 80 79 80 78 79 80 81 81 80 80 80 79 80 80 80 78 78 78 78 77 77 77 77 77 76 77 77 77 78 78 78 78 78 78 78 78 78 79 79 79
79 80 80 79 79 77 77 78 79 79 80 80 79 80 81 81 81 81 79 77 78 77 77 78 77 77 77 77 77 77 77 78 78 78 78 77 77 78 78 78 78 79
78 78 79 78 78 77 76 77 79 79 80 80 79 80 79 79 79 79 80 79 78 77 78 78 78 78 75 70 72 78 77 78 78 77 77 78 77 77 78 78 78 79
78 78 78 77 77 77 77 77 77 79 78 77 78 78 78 77 79 79 80 81 80 79 78 78 79 80 71 67 67 69 77 77 77 77 77 77 78 77 77 78 78 78
79 78 77 77 77 77 77 77 78 78 77 77 78 78 77 79 79 78 78 80 80 80 80 80 79 73 68 66 66 66 70 78 79 78 78 77 78 78 78 78 78 78
78 78 78 78 77 77 77 77 76 77 77 77 78 79 79 76 76 78 78 78 79 78 79 80 81 72 67 66 66 65 65 72 80 79 79 78 78 78 78 78 78 78
77 78 78 78 78 77 77 77 77 76 78 80 80 78 77 77 79 77 77 76 77 77 77 80 80 72 66 64 64 64 65 67 78 79 79 79 78 78 79 78 78 77
78 78 78 78 78 78 77 77 77 77 78 79 80 79 78 77 78 78 77 77 78 79 78 80 82 71 65 63 62 62 63 66 75 78 78 78 78 79 78 79 79 78
78 77 78 78 78 78 77 77 77 77 77 78 78 80 80 80 78 79 79 78 78 79 79 79 82 69 65 63 62 61 63 70 73 75 76 78 78 78 79 78 79 79
78 78 78 78 78 78 78 78 77 77 78 78 78 79 79 79 79 80 79 80 79 78 78 78 80 73 64 62 61 61 63 72 73 74 75 76 77 78 78 79 79 79
79 79 79 79 78 78 78 79 79 79 79 79 78 78 79 80 80 80 80 80 80 80 80 79 80 74 64 61 60 60 64 73 73 74 74 75 76 77 78 78 79 80
79 79 80 80 79 79 80 79 79 79 80 80 80 80 80 80 80 80 81 81 82 82 77 78 81 76 64 61 60 59 64 73 74 74 74 75 76 76 78 78 78 79
79 79 79 80 80 80 80 80 80 80 80 80 80 81 81 81 81 81 80 81 82 82 82 81 81 81 76 61 59 58 59 73 74 74 74 75 76 76 77 77 78 78
MSLP
1017.76 1018.08 1018.40 1018.64 1018.76 1018.80 1019.04 1019.32 1019.44 1019.64 1019.76 1019.76 1019.96 1019.96 1020.04 1020.04 1020.12 1020.36 1020.52 1020.64 1020.76 1020.88 1021.00 1021.08 1021.16 1021.28 1021.36 1021.44 1021.56 1021.76 1021.92 1022.04 1022.08 1022.12 1022.28 1022.44 1022.60 1022.68 1022.80 1022.84 1022.92 1023.00
1017.52 1017.76 1018.04 1018.32 1018.56 1018.68 1018.76 1018.84 1019.08 1019.32 1019.48 1019.56 1019.52 1019.60 1019.68 1019.80 1019.92 1020.08 1020.36 1020.56 1020.64 1020.76 1020.84 1020.96 1021.08 1021.16 1021.28 1021.44 1021.56 1021.76 1021.92 1022.00 1022.16 1021.92 1022.24 1022.40 1022.44 1022.56 1022.64 1022.64 1022.76 1022.80
1017.28 1017.64 1017.92 1018.20 1018.36 1018.48 1018.52 1018.64 1018.80 1019.00 1019.16 1019.20 1019.32 1019.44 1019.56 1019.56 1019.80 1019.92 1020.08 1020.28 1020.52 1020.64 1020.76 1020.84 1021.00 1021.08 1021.20 1021.32 1021.48 1021.64 1021.80 1021.96 1022.08 1021.92 1022.08 1022.24 1022.28 1022.48 1022.44 1022.48 1022.60 1022.72
1017.04 1017.20 1017.44 1017.68 1017.88 1018.16 1018.32 1018.60 1018.76 1018.88 1019.00 1019.24 1019.24 1019.12 1019.24 1019.40 1019.56 1019.84 1019.96 1020.08 1020.32 1020.48 1020.56 1020.72 1020.84 1020.92 1021.08 1021.20 1021.36 1021.56 1021.60 1021.72 1021.72 1021.88 1022.08 1022.08 1022.16 1022.24 1022.36 1022.40 1022.48 1022.56
1016.68 1016.88 1017.08 1017.32 1017.56 1017.84 1018.16 1018.44 1018.60 1018.68 1018.84 1018.84 1018.88 1019.04 1019.24 1019.36 1019.52 1019.72 1019.88 1020.00 1020.08 1020.28 1020.44 1020.60 1020.68 1020.80 1020.92 1021.08 1021.24 1021.52 1021.56 1021.68 1021.72 1021.84 1022.04 1022.16 1022.04 1022.16 1022.20 1022.32 1022.48 1022.60
1016.40 1016.52 1016.76 1017.12 1017.40 1017.72 1018.04 1018.20 1018.24 1018.36 1018.48 1018.72 1018.72 1018.80 1019.00 1019.16 1019.36 1019.52 1019.72 1019.92 1019.96 1020.08 1020.28 1020.40 1020.56 1020.64 1020.76 1020.96 1021.12 1021.32 1021.40 1021.60 1021.60 1021.76 1022.00 1022.04 1022.00 1021.96 1022.08 1022.24 1022.40 1022.56
1016.28 1016.48 1016.72 1016.84 1017.16 1017.40 1017.72 1017.84 1017.96 1018.08 1018.20 1018.20 1018.40 1018.76 1018.80 1019.12 1019.28 1019.36 1019.52 1019.68 1019.84 1019.96 1020.08 1020.24 1020.40 1020.56 1020.60 1020.80 1021.00 1021.20 1021.24 1021.32 1021.40 1021.60 1021.80 1021.88 1021.88 1021.96 1022.00 1022.16 1022.28 1022.40
1016.00 1016.16 1016.40 1016.68 1016.96 1017.16 1017.44 1017.56 1017.76 1017.88 1017.88 1018.12 1018.40 1018.36 1018.52 1018.80 1019.00 1019.12 1019.32 1019.52 1019.76 1019.84 1019.92 1020.04 1020.16 1020.28 1020.40 1020.56 1020.84 1021.04 1021.12 1021.12 1021.28 1021.44 1021.64 1021.80 1021.84 1021.96 1021.96 1022.00 1022.16 1022.36
1015.64 1015.96 1016.16 1016.48 1016.76 1016.88 1017.04 1017.16 1017.32 1017.48 1017.64 1018.00 1018.12 1018.16 1018.28 1018.44 1018.64 1018.84 1019.08 1019.36 1019.60 1019.72 1019.84 1019.96 1020.04 1020.16 1020.24 1020.40 1020.60 1020.76 1020.92 1021.00 1021.04 1021.20 1021.44 1021.64 1021.80 1021.80 1021.84 1021.88 1022.12 1022.24
1015.44 1015.64 1016.00 1016.24 1016.52 1016.52 1016.68 1016.68 1016.80 1017.08 1017.32 1017.60 1017.72 1017.92 1018.20 1018.24 1018.36 1018.60 1018.88 1019.20 1019.44 1019.60 1019.76 1019.84 1019.96 1020.04 1020.16 1020.24 1020.36 1020.48 1020.68 1020.84 1020.92 1021.04 1021.16 1021.28 1021.40 1021.52 1021.64 1021.80 1021.92 1022.12
1015.16 1015.40 1015.72 1015.96 1016.12 1016.20 1016.36 1016.44 1016.56 1016.76 1017.00 1017.24 1017.48 1017.76 1017.84 1018.04 1018.24 1018.36 1018.72 1019.00 1019.28 1019.40 1019.56 1019.68 1019.68 1019.80 1020.00 1020.08 1020.12 1020.16 1020.36 1020.56 1020.72 1020.80 1020.92 1021.00 1021.04 1021.16 1021.28 1021.48 1021.68 1021.80
1014.84 1015.12 1015.36 1015.52 1015.72 1015.88 1016.04 1016.20 1016.36 1016.56 1016.72 1016.84 1017.04 1017.36 1017.56 1017.68 1017.96 1018.20 1018.36 1018.64 1018.80 1018.96 1019.12 1019.28 1019.36 1019.52 1019.68 1019.76 1019.84 1019.96 1020.12 1020.24 1020.36 1020.52 1020.60 1020.68 1020.76 1020.84 1020.96 1021.08 1021.28 1021.36
1014.44 1014.64 1014.80 1015.08 1015.28 1015.44 1015.60 1015.84 1016.04 1016.20 1016.40 1016.60 1016.64 1016.88 1017.16 1017.40 1017.56 1017.84 1017.92 1018.16 1018.36 1018.56 1018.80 1018.92 1019.08 1019.20 1019.40 1019.52 1019.64 1019.76 1019.92 1020.08 1020.20 1020.32 1020.36 1020.44 1020.44 1020.48 1020.52 1020.68 1020.80 1020.92
1013.84 1014.00 1014.32 1014.52 1014.68 1014.96 1015.16 1015.32 1015.52 1015.68 1015.84 1016.00 1016.28 1016.60 1016.76 1016.92 1017.12 1017.36 1017.48 1017.68 1017.88 1018.16 1018.32 1018.52 1018.84 1019.04 1019.16 1019.28 1019.40 1019.52 1019.68 1019.80 1019.92 1020.04 1020.16 1020.24 1020.24 1020.24 1020.28 1020.36 1020.44 1020.52
1013.32 1013.60 1013.80 1014.08 1014.36 1014.64 1014.84 1015.00 1015.08 1015.20 1015.36 1015.60 1015.84 1016.04 1016.16 1016.28 1016.44 1016.80 1017.20 1017.48 1017.56 1017.72 1017.92 1018.12 1018.44 1018.64 1018.76 1018.92 1019.20 1019.36 1019.40 1019.56 1019.64 1019.76 1019.88 1020.04 1020.12 1020.12 1020.12 1020.16 1020.20 1020.24
1012.92 1013.20 1013.44 1013.72 1014.08 1014.32 1014.48 1014.64 1014.84 1015.00 1015.16 1015.36 1015.48 1015.56 1015.72 1015.92 1016.16 1016.36 1016.68 1017.00 1017.32 1017.44 1017.56 1017.76 1017.92 1018.00 1018.12 1018.32 1018.52 1018.76 1019.04 1019.20 1019.32 1019.48 1019.60 1019.72 1019.88 1020.00 1020.00 1020.00 1019.92 1019.96
1012.52 1012.84 1013.08 1013.48 1013.60 1013.80 1014.08 1014.36 1014.52 1014.64 1014.88 1015.08 1015.24 1015.40 1015.52 1015.64 1015.88 1016.16 1016.32 1016.44 1016.72 1016.96 1017.24 1017.32 1017.32 1017.32 1017.52 1017.80 1018.08 1018.24 1018.48 1018.80 1019.04 1019.16 1019.24 1019.40 1019.56 1019.72 1019.84 1019.76 1019.72 1019.68
1011.92 1012.24 1012.68 1012.88 1013.12 1013.40 1013.60 1013.80 1014.08 1014.40 1014.64 1014.80 1014.96 1015.16 1015.24 1015.40 1015.76 1015.80 1015.92 1016.04 1016.20 1016.36 1016.60 1016.68 1016.76 1016.72 1016.96 1017.24 1017.48 1017.76 1018.00 1018.20 1018.48 1018.76 1018.92 1019.08 1019.16 1019.28 1019.28 1019.36 1019.44 1019.48
1011.28 1011.72 1012.04 1012.28 1012.48 1012.68 1013.00 1013.36 1013.76 1014.08 1014.28 1014.48 1014.64 1014.56 1014.88 1015.32 1015.36 1015.48 1015.68 1015.68 1015.84 1016.04 1016.12 1016.04 1016.12 1016.08 1016.44 1016.68 1016.96 1017.20 1017.52 1017.80 1018.00 1018.24 1018.52 1018.68 1018.72 1018.80 1018.88 1019.00 1019.08 1019.24
1010.16 1010.56 1011.08 1011.44 1011.76 1012.12 1012.48 1012.92 1013.28 1013.52 1013.56 1013.64 1013.92 1014.24 1014.64 1014.80 1014.84 1015.04 1015.12 1015.32 1015.40 1015.52 1015.56 1015.52 1015.56 1015.48 1015.84 1016.12 1016.40 1016.72 1017.04 1017.48 1017.64 1017.80 1018.00 1018.16 1018.28 1018.36 1018.44 1018.56 1018.64 1018.80
1009.84 1009.72 1009.84 1010.20 1010.68 1011.32 1011.92 1012.36 1012.64 1012.84 1013.08 1013.24 1013.48 1013.80 1014.08 1014.24 1014.36 1014.60 1014.64 1014.72 1014.84 1014.92 1015.12 1015.20 1014.96 1014.88 1015.24 1015.56 1015.84 1016.20 1016.56 1017.08 1017.32 1017.48 1017.68 1017.80 1017.80 1017.88 1017.96 1018.00 1018.04 1018.12
1009.80 1010.24 1010.24 1010.12 1010.24 1010.64 1011.28 1011.72 1011.96 1012.24 1012.56 1012.64 1012.96 1013.16 1013.28 1013.48 1013.76 1013.92 1014.12 1014.20 1014.16 1014.40 1014.72 1014.80 1014.36 1014.36 1014.68 1015.00 1015.32 1015.68 1016.12 1016.76 1017.04 1017.28 1017.44 1017.44 1017.44 1017.40 1017.48 1017.48 1017.48 1017.56
1009.56 1009.84 1010.12 1010.32 1010.36 1010.56 1010.76 1011.04 1011.40 1011.68 1011.84 1012.00 1012.60 1012.72 1012.96 1013.12 1013.20 1013.28 1013.32 1013.52 1013.76 1014.00 1014.28 1014.20 1013.96 1013.84 1014.16 1014.48 1014.84 1015.20 1016.00 1016.44 1016.64 1016.88 1017.08 1017.12 1017.04 1016.92 1016.96 1017.00 1016.96 1017.00
1009.44 1009.44 1009.68 1009.84 1010.16 1010.44 1010.40 1010.40 1010.52 1010.80 1011.20 1011.44 1011.96 1012.20 1012.44 1012.36 1012.36 1012.64 1012.76 1012.88 1013.16 1013.36 1013.36 1013.60 1013.40 1013.24 1013.64 1013.92 1014.32 1014.80 1015.40 1015.80 1016.12 1016.48 1016.64 1016.72 1016.64 1016.52 1016.52 1016.52 1016.44 1016.36
1009.52 1009.32 1009.28 1009.40 1009.68 1009.84 1009.92 1010.16 1010.28 1010.44 1010.48 1010.80 1011.12 1011.40 1011.60 1011.60 1011.92 1012.24 1012.28 1012.32 1012.36 1012.44 1012.52 1012.84 1012.76 1012.68 1012.96 1013.32 1013.64 1014.20 1014.92 1015.20 1015.56 1015.96 1016.28 1016.32 1016.28 1016.24 1016.08 1016.12 1016.08 1015.96
1009.56 1009.40 1009.20 1009.16 1009.24 1009.32 1009.48 1009.68 1009.72 1010.00 1010.32 1010.64 1010.76 1010.92 1011.16 1011.28 1011.48 1011.64 1011.88 1011.84 1011.72 1011.92 1012.04 1012.12 1012.28 1012.16 1012.28 1012.64 1013.00 1013.56 1014.20 1014.56 1014.96 1015.56 1015.84 1015.72 1015.68 1015.72 1015.92 1015.84 1015.72 1015.64
Wind_Speed
9 8 8 8 8 7 7 8 7 7 7 7 7 7 7 7 6 6 6 5 6 5 5 5 5 4 4 3 3 3 3 4 3 3 3 3 3 3 4 4 3 3
11 10 8 7 6 6 6 7 8 8 8 7 7 6 6 6 6 6 6 6 5 6 5 5 5 5 4 4 4 4 3 3 5 2 3 4 4 3 4 4 3 1
10 9 10 10 9 10 9 8 7 7 7 8 7 6 6 5 6 6 6 6 6 5 6 5 5 5 5 4 4 4 4 4 5 4 4 5 3 3 3 3 2 3
11 11 11 11 9 9 8 7 7 6 6 6 8 7 6 5 6 7 6 7 6 6 5 5 6 5 5 5 4 4 4 4 4 3 4 3 3 3 3 2 2 2
13 12 11 10 9 7 6 8 9 8 8 8 6 6 6 6 6 6 6 7 6 6 6 6 6 6 5 5 5 4 4 4 3 4 4 5 3 3 3 2 3 3
10 10 10 10 9 7 8 9 9 9 9 8 9 6 7 6 6 6 7 7 6 6 6 6 6 6 6 5 5 5 5 4 4 5 5 5 4 3 2 3 3 4
12 11 11 10 10 9 9 9 8 8 8 9 6 7 6 7 7 7 7 7 7 6 7 7 7 6 6 6 6 6 5 5 5 5 5 5 4 4 3 3 3 4
12 11 10 9 11 10 10 9 8 8 8 6 8 8 7 8 8 6 6 7 7 7 7 7 7 7 6 6 6 6 6 4 5 6 6 5 4 5 3 3 3 4
11 11 11 11 12 11 10 10 9 9 7 8 9 8 7 8 8 7 7 7 7 7 7 7 7 7 6 6 7 7 7 6 5 7 7 6 6 6 5 4 4 4
12 11 11 10 11 11 13 12 11 9 7 9 9 7 7 7 8 8 6 7 7 7 7 7 7 6 6 6 7 7 7 7 6 6 6 6 7 6 6 5 6 5
12 11 11 13 12 10 12 11 11 10 8 9 9 8 8 7 7 7 7 7 8 9 8 8 8 7 7 7 6 6 6 6 6 6 7 7 7 7 6 6 6 7
13 12 12 13 12 11 12 11 10 10 10 8 9 10 9 8 9 7 8 9 9 9 9 9 8 8 8 8 7 6 6 6 6 7 7 7 7 7 7 6 7 7
13 14 13 12 12 13 11 10 10 10 10 10 9 10 10 8 8 9 8 9 9 9 9 9 9 8 8 8 8 7 7 7 6 7 7 6 7 7 7 7 7 7
13 12 13 13 12 11 12 12 12 12 12 11 9 10 10 11 9 10 9 8 9 9 9 7 7 7 7 8 8 8 7 7 7 7 7 7 7 7 7 7 7 7
12 11 11 12 12 11 11 12 12 12 12 11 11 11 9 11 11 10 9 9 9 9 9 8 7 7 8 8 8 8 7 8 8 8 7 7 7 7 6 7 7 7
11 11 11 11 11 12 12 12 11 11 11 12 12 12 11 10 10 10 10 11 10 10 9 8 9 8 10 15 13 9 9 8 7 8 8 7 7 6 6 7 8 7
11 11 11 11 12 12 11 11 12 11 11 10 11 11 11 10 10 11 11 10 11 11 10 9 8 8 15 16 16 16 11 9 9 8 8 7 7 7 7 7 6 7
12 12 12 12 12 12 12 12 11 11 11 11 11 12 10 9 10 11 11 10 9 10 11 10 10 12 16 17 17 18 15 11 8 8 7 7 7 8 7 7 7 6
12 12 13 13 13 13 12 11 11 11 12 12 12 12 10 9 11 11 11 11 11 11 12 11 11 14 16 17 17 18 18 15 9 9 8 7 8 8 9 9 7 5
16 16 15 14 13 13 12 12 12 13 13 12 11 10 10 11 12 12 12 11 11 12 12 11 12 14 17 18 18 18 18 14 9 10 9 9 10 9 7 8 9 9
15 16 18 17 16 14 13 13 13 13 13 12 11 11 11 13 13 12 12 12 13 13 12 12 11 17 16 18 18 19 18 14 10 9 9 9 10 10 10 10 10 9
13 12 12 12 14 14 14 14 14 14 14 12 11 11 11 10 10 10 12 13 13 13 12 13 12 17 17 17 18 18 18 9 8 10 10 10 10 10 10 10 10 10
12 13 13 13 12 13 14 14 14 14 13 10 11 11 12 11 11 12 12 12 13 12 13 13 14 16 17 18 18 18 12 9 9 9 9 11 11 11 10 10 10 11
10 12 13 13 12 13 14 14 13 11 12 10 12 13 13 13 13 11 11 11 13 14 13 13 14 15 17 18 18 18 14 11 10 9 10 10 11 10 9 10 11 16
9 11 12 13 13 13 13 13 12 12 12 11 11 11 12 11 11 10 12 11 11 13 17 16 14 15 17 18 19 18 15 10 10 9 10 10 10 10 10 10 10 12
10 9 10 11 12 12 11 11 11 10 10 10 10 9 10 9 10 10 12 11 11 12 11 13 15 14 14 19 19 19 19 13 9 9 11 12 11 10 10 9 10 10
Wind_Direction
187 186 189 191 194 191 185 185 191 193 199 200 200 203 202 204 186 186 192 191 196 198 199 198 191 191 200 190 185 180 195 222 242 225 216 200 209 211 239 237 211 202
191 191 193 192 191 191 193 191 190 193 199 202 207 202 203 192 192 186 188 193 194 202 195 196 195 195 190 184 185 189 207 209 239 213 214 213 218 207 234 242 243 193
189 190 193 194 197 196 192 194 191 197 200 205 199 201 200 190 187 189 191 190 196 200 195 193 192 195 191 191 187 194 199 199 225 218 207 218 209 211 236 247 247 225
193 194 197 201 201 199 193 185 195 199 204 198 206 203 198 191 186 184 194 195 196 200 195 189 195 188 186 190 184 199 201 208 220 189 217 229 215 205 227 226 251 257
195 197 199 202 200 194 185 193 197 199 200 211 209 204 202 197 187 188 187 200 198 196 192 197 192 192 182 182 184 195 197 211 201 187 206 225 214 199 219 207 242 262
201 199 197 198 197 187 190 201 205 198 203 205 210 200 207 202 200 192 190 192 197 192 193 194 193 193 185 179 179 195 194 203 197 187 201 218 224 198 211 202 222 247
198 197 200 197 196 194 198 206 206 204 205 209 193 206 201 202 209 206 196 197 195 202 200 201 202 199 190 182 182 191 197 201 195 187 202 215 215 223 200 196 211 243
198 197 198 197 199 200 205 207 204 206 207 195 200 210 196 204 209 207 199 194 196 207 209 207 206 206 190 183 190 193 197 192 195 192 199 209 201 229 213 196 198 230
196 196 195 198 202 204 207 205 205 208 196 199 210 210 200 207 209 206 201 194 204 209 211 213 212 208 197 194 203 200 199 200 199 193 198 202 208 218 213 201 218 221
195 196 193 197 203 208 211 209 207 204 192 204 211 209 203 209 210 204 196 196 205 209 208 215 212 209 200 207 210 204 205 206 199 201 204 208 213 213 207 198 214 226
198 193 196 199 205 207 212 212 210 203 195 202 204 207 209 207 210 197 196 196 206 209 209 210 214 206 207 210 215 208 209 206 204 207 210 211 211 213 210 201 207 221
198 197 200 201 204 206 210 210 210 209 203 203 198 205 206 205 206 197 200 204 208 210 209 214 213 208 211 214 214 208 206 207 205 208 214 214 215 214 209 202 211 218
197 201 200 202 204 208 208 207 207 206 206 208 201 204 202 201 201 200 202 204 208 206 208 210 211 209 212 216 218 215 214 212 211 212 216 215 218 219 215 210 211 215
202 199 201 203 204 204 205 207 207 207 207 208 201 204 206 208 203 202 202 198 204 203 208 203 202 206 211 215 215 212 210 215 215 214 217 220 224 223 220 219 215 216
199 199 202 203 204 203 206 208 209 209 208 206 205 208 208 210 210 206 202 203 205 205 203 199 197 205 207 209 213 212 211 217 216 217 217 220 225 226 221 222 222 220
197 199 200 201 202 205 207 208 209 210 210 211 211 211 212 210 210 208 207 207 208 209 208 203 206 207 206 206 207 210 208 215 218 221 221 222 223 225 226 222 225 223
195 199 198 200 204 206 206 206 210 209 210 213 214 214 215 213 211 213 213 212 211 212 211 212 211 210 206 203 207 209 209 212 216 222 220 221 221 223 229 223 222 221
197 196 198 203 201 205 204 206 207 208 212 212 213 215 216 213 216 217 218 217 216 217 218 218 219 217 207 206 205 208 207 212 211 219 218 218 220 222 229 229 226 219
194 195 201 203 204 204 203 202 202 207 212 212 214 215 210 210 217 216 218 218 219 220 224 222 226 217 211 209 209 208 208 208 218 217 215 219 220 222 229 233 232 227
188 192 197 202 204 203 201 200 201 208 210 211 214 209 208 215 216 216 216 215 217 220 225 227 227 225 211 210 210 209 207 202 218 217 219 223 223 221 222 225 227 230
200 196 196 197 197 198 198 201 204 209 210 211 210 208 209 214 216 215 217 216 218 218 222 227 230 227 217 212 211 210 208 196 211 217 222 226 225 224 224 225 226 224
204 214 220 209 198 194 196 202 205 206 209 208 208 212 215 216 219 219 220 220 220 218 219 230 232 226 220 217 213 211 204 192 203 212 218 225 228 227 224 224 225 225
202 205 209 213 209 201 200 203 204 207 211 203 207 212 213 213 216 215 219 220 220 215 219 228 234 227 220 220 216 212 195 201 202 208 216 221 228 227 225 224 224 225
212 209 210 210 207 208 207 207 206 208 210 200 207 210 214 216 216 217 218 218 218 218 216 222 231 227 215 218 216 209 193 201 203 205 215 219 228 227 224 224 225 221
238 222 215 210 207 210 211 209 207 207 208 203 208 212 218 219 216 219 221 220 216 219 218 219 230 230 214 214 213 207 193 205 201 204 214 221 222 227 222 223 227 226
242 231 221 214 210 212 211 213 212 210 210 204 210 210 219 217 217 217 222 222 218 219 218 218 227 232 218 210 212 206 193 197 200 200 214 219 220 222 224 220 224 228